Time,TemperatureF,DewpointF,PressureIn,WindDirection,WindDirectionDegrees,WindSpeedMPH,WindSpeedGustMPH,Humidity,HourlyPrecipIn,Conditions,Clouds,dailyrainin,SoftwareType,DateUTC
2013-01-15 00:03:00,33.5,30.5,30.21,West,270,0.0,0.0,89,0.00,,,0.00,WUHU216HW,2013-01-15 08:03:00,
2013-01-15 00:08:00,33.5,30.8,30.21,West,270,0.0,0.0,90,0.00,,,0.00,WUHU216HW,2013-01-15 08:08:00,
2013-01-15 00:13:00,33.5,30.8,30.21,West,270,0.0,0.0,90,0.00,,,0.00,WUHU216HW,2013-01-15 08:13:00,
2013-01-15 00:18:00,33.5,30.8,30.22,West,270,0.0,0.0,90,0.00,,,0.00,WUHU216HW,2013-01-15 08:18:00,
2013-01-15 00:23:00,33.5,30.5,30.22,West,270,0.0,0.0,89,0.00,,,0.00,WUHU216HW,2013-01-15 08:23:00,
2013-01-15 00:28:00,33.5,30.5,30.22,West,270,0.0,0.0,89,0.00,,,0.00,WUHU216HW,2013-01-15 08:28:00,
2013-01-15 00:33:00,33.5,30.5,30.21,West,270,0.0,0.0,89,0.00,,,0.00,WUHU216HW,2013-01-15 08:33:00,
2013-01-15 00:38:00,33.5,30.8,30.21,West,270,0.0,0.0,90,0.00,,,0.00,WUHU216HW,2013-01-15 08:38:00,
2013-01-15 00:43:00,33.5,30.8,30.21,West,270,0.0,0.0,90,0.00,,,0.00,WUHU216HW,2013-01-15 08:43:00,
2013-01-15 00:48:00,33.3,30.3,30.21,West,270,0.0,0.0,89,0.00,,,0.00,WUHU216HW,2013-01-15 08:48:00,
2013-01-15 00:53:00,33.5,30.5,30.22,West,270,0.0,0.0,89,0.00,,,0.00,WUHU216HW,2013-01-15 08:53:00,
2013-01-15 00:58:00,33.5,30.5,30.22,West,270,0.0,0.0,89,0.00,,,0.00,WUHU216HW,2013-01-15 08:58:00,
2013-01-15 01:03:00,33.5,30.5,30.22,West,270,0.0,0.0,89,0.00,,,0.00,WUHU216HW,2013-01-15 09:03:00,
2013-01-15 01:08:00,33.7,31.0,30.23,West,270,0.0,0.0,90,0.00,,,0.00,WUHU216HW,2013-01-15 09:08:00,
2013-01-15 01:13:00,33.8,31.1,30.23,West,270,0.0,0.0,90,0.00,,,0.00,WUHU216HW,2013-01-15 09:13:00,
2013-01-15 01:18:00,33.8,30.9,30.23,West,270,0.0,0.0,89,0.00,,,0.00,WUHU216HW,2013-01-15 09:18:00,
2013-01-15 01:23:00,34.0,31.3,30.23,West,270,0.0,0.0,90,0.00,,,0.00,WUHU216HW,2013-01-15 09:23:00,
2013-01-15 01:28:00,34.2,31.5,30.23,West,270,0.0,0.0,90,0.00,,,0.00,WUHU216HW,2013-01-15 09:28:00,
2013-01-15 01:33:00,34.2,31.2,30.23,West,270,0.0,0.0,89,0.00,,,0.00,WUHU216HW,2013-01-15 09:33:00,
2013-01-15 01:38:00,34.2,31.2,30.23,West,270,0.0,0.0,89,0.00,,,0.00,WUHU216HW,2013-01-15 09:38:00,
2013-01-15 01:43:00,34.4,31.4,30.23,West,270,0.0,0.0,89,0.00,,,0.00,WUHU216HW,2013-01-15 09:43:00,
2013-01-15 01:48:00,34.4,31.7,30.24,West,270,0.0,0.0,90,0.00,,,0.00,WUHU216HW,2013-01-15 09:48:00,
2013-01-15 01:53:00,34.4,31.7,30.24,West,270,0.0,0.0,90,0.00,,,0.00,WUHU216HW,2013-01-15 09:53:00,
2013-01-15 01:58:00,34.4,31.7,30.24,West,270,0.0,0.0,90,0.00,,,0.00,WUHU216HW,2013-01-15 09:58:00,
2013-01-15 02:03:00,34.4,31.7,30.24,West,270,0.0,0.0,90,0.00,,,0.00,WUHU216HW,2013-01-15 10:03:00,
2013-01-15 02:08:00,34.6,31.6,30.24,West,270,0.0,0.0,89,0.00,,,0.00,WUHU216HW,2013-01-15 10:08:00,
2013-01-15 02:13:00,34.6,31.6,30.24,West,270,0.0,0.0,89,0.00,,,0.00,WUHU216HW,2013-01-15 10:13:00,
2013-01-15 02:18:00,34.6,31.6,30.25,West,270,0.0,0.0,89,0.00,,,0.00,WUHU216HW,2013-01-15 10:18:00,
2013-01-15 02:23:00,34.6,31.6,30.25,West,270,0.0,0.0,89,0.00,,,0.00,WUHU216HW,2013-01-15 10:23:00,
2013-01-15 02:28:00,34.6,31.6,30.25,West,270,0.0,0.0,89,0.00,,,0.00,WUHU216HW,2013-01-15 10:28:00,
2013-01-15 02:33:00,34.6,31.9,30.25,West,270,0.0,0.0,90,0.00,,,0.00,WUHU216HW,2013-01-15 10:33:00,
2013-01-15 02:38:00,34.4,31.4,30.25,West,270,0.0,0.0,89,0.00,,,0.00,WUHU216HW,2013-01-15 10:38:00,
2013-01-15 02:43:00,34.4,31.7,30.25,West,270,0.0,0.0,90,0.00,,,0.00,WUHU216HW,2013-01-15 10:43:00,
2013-01-15 02:48:00,34.4,31.7,30.24,West,270,0.0,0.0,90,0.00,,,0.00,WUHU216HW,2013-01-15 10:48:00,
2013-01-15 02:53:00,34.4,31.7,30.24,West,270,0.0,0.0,90,0.00,,,0.00,WUHU216HW,2013-01-15 10:53:00,
2013-01-15 02:58:00,34.4,31.4,30.24,West,270,0.0,0.0,89,0.00,,,0.00,WUHU216HW,2013-01-15 10:58:00,
2013-01-15 03:03:00,34.6,31.6,30.24,West,270,0.0,0.0,89,0.00,,,0.00,WUHU216HW,2013-01-15 11:03:00,
2013-01-15 03:08:00,34.6,31.6,30.24,West,270,0.0,0.0,89,0.00,,,0.00,WUHU216HW,2013-01-15 11:08:00,
2013-01-15 03:13:00,34.6,31.6,30.23,West,270,0.0,0.0,89,0.00,,,0.00,WUHU216HW,2013-01-15 11:13:00,
2013-01-15 03:18:00,34.6,31.6,30.24,West,270,0.0,0.0,89,0.00,,,0.00,WUHU216HW,2013-01-15 11:18:00,
2013-01-15 03:23:00,34.6,31.6,30.24,West,270,0.0,0.0,89,0.00,,,0.00,WUHU216HW,2013-01-15 11:23:00,
2013-01-15 03:28:00,34.6,31.6,30.24,West,270,0.0,0.0,89,0.00,,,0.00,WUHU216HW,2013-01-15 11:28:00,
2013-01-15 03:33:00,34.6,31.9,30.24,West,270,0.0,0.0,90,0.00,,,0.00,WUHU216HW,2013-01-15 11:33:00,
2013-01-15 03:38:00,34.6,31.6,30.24,West,270,0.0,0.0,89,0.00,,,0.00,WUHU216HW,2013-01-15 11:38:00,
2013-01-15 03:43:00,34.6,31.6,30.24,West,270,0.0,0.0,89,0.00,,,0.00,WUHU216HW,2013-01-15 11:43:00,
2013-01-15 03:48:00,34.6,31.6,30.24,West,270,0.0,0.0,89,0.00,,,0.00,WUHU216HW,2013-01-15 11:48:00,
2013-01-15 03:53:00,34.7,31.8,30.24,West,270,0.0,0.0,89,0.00,,,0.00,WUHU216HW,2013-01-15 11:53:00,
2013-01-15 03:58:00,34.7,31.8,30.24,West,270,0.0,0.0,89,0.00,,,0.00,WUHU216HW,2013-01-15 11:58:00,
2013-01-15 04:03:00,34.7,31.8,30.24,West,270,0.0,0.0,89,0.00,,,0.00,WUHU216HW,2013-01-15 12:03:00,
2013-01-15 04:08:00,34.7,31.8,30.24,West,270,0.0,0.0,89,0.00,,,0.00,WUHU216HW,2013-01-15 12:08:00,
2013-01-15 04:13:00,34.6,31.6,30.24,West,270,0.0,0.0,89,0.00,,,0.00,WUHU216HW,2013-01-15 12:13:00,
2013-01-15 04:18:00,34.7,31.8,30.24,West,270,0.0,0.0,89,0.00,,,0.00,WUHU216HW,2013-01-15 12:18:00,
2013-01-15 04:23:00,34.6,31.6,30.24,West,270,0.0,0.0,89,0.00,,,0.00,WUHU216HW,2013-01-15 12:23:00,
2013-01-15 04:28:00,34.6,31.6,30.24,West,270,0.0,0.0,89,0.00,,,0.00,WUHU216HW,2013-01-15 12:28:00,
2013-01-15 04:33:00,34.6,31.6,30.24,West,270,0.0,0.0,89,0.00,,,0.00,WUHU216HW,2013-01-15 12:33:00,
2013-01-15 04:38:00,34.6,31.6,30.24,West,270,0.0,0.0,89,0.00,,,0.00,WUHU216HW,2013-01-15 12:38:00,
2013-01-15 04:43:00,34.6,31.6,30.24,West,270,0.0,0.0,89,0.00,,,0.00,WUHU216HW,2013-01-15 12:43:00,
2013-01-15 04:48:00,34.6,31.6,30.24,West,270,0.0,0.0,89,0.00,,,0.00,WUHU216HW,2013-01-15 12:48:00,
2013-01-15 04:53:00,34.6,31.6,30.24,West,270,0.0,0.0,89,0.00,,,0.00,WUHU216HW,2013-01-15 12:53:00,
2013-01-15 04:58:00,34.6,31.6,30.24,West,270,0.0,0.0,89,0.00,,,0.00,WUHU216HW,2013-01-15 12:58:00,
2013-01-15 05:03:00,34.6,31.6,30.24,West,270,0.0,0.0,89,0.00,,,0.00,WUHU216HW,2013-01-15 13:03:00,
2013-01-15 05:08:00,34.6,31.9,30.24,West,270,0.0,0.0,90,0.00,,,0.00,WUHU216HW,2013-01-15 13:08:00,
2013-01-15 05:13:00,34.6,31.9,30.24,West,270,0.0,0.0,90,0.00,,,0.00,WUHU216HW,2013-01-15 13:13:00,
2013-01-15 05:18:00,34.6,31.9,30.24,West,270,0.0,0.0,90,0.00,,,0.00,WUHU216HW,2013-01-15 13:18:00,
2013-01-15 05:23:00,34.6,31.9,30.24,West,270,0.0,0.0,90,0.00,,,0.00,WUHU216HW,2013-01-15 13:23:00,
2013-01-15 05:28:00,34.6,31.9,30.24,West,270,0.0,0.0,90,0.00,,,0.00,WUHU216HW,2013-01-15 13:28:00,
2013-01-15 05:33:00,34.6,31.9,30.24,West,270,0.0,0.0,90,0.00,,,0.00,WUHU216HW,2013-01-15 13:33:00,
2013-01-15 05:38:00,34.6,31.9,30.24,West,270,0.0,0.0,90,0.00,,,0.00,WUHU216HW,2013-01-15 13:38:00,
2013-01-15 05:43:00,34.7,32.0,30.25,West,270,0.0,0.0,90,0.00,,,0.00,WUHU216HW,2013-01-15 13:43:00,
2013-01-15 05:48:00,34.7,32.0,30.25,West,270,0.0,0.0,90,0.00,,,0.00,WUHU216HW,2013-01-15 13:48:00,
2013-01-15 05:53:00,34.7,32.0,30.25,West,270,0.0,0.0,90,0.00,,,0.00,WUHU216HW,2013-01-15 13:53:00,
2013-01-15 05:58:00,34.7,32.0,30.25,West,270,0.0,0.0,90,0.00,,,0.00,WUHU216HW,2013-01-15 13:58:00,
2013-01-15 06:03:00,34.9,32.2,30.25,West,270,0.0,0.0,90,0.00,,,0.00,WUHU216HW,2013-01-15 14:03:00,
2013-01-15 06:08:00,34.7,32.0,30.25,West,270,0.0,0.0,90,0.00,,,0.00,WUHU216HW,2013-01-15 14:08:00,
2013-01-15 06:13:00,34.9,32.2,30.25,West,270,0.0,0.0,90,0.00,,,0.00,WUHU216HW,2013-01-15 14:13:00,
2013-01-15 06:18:00,34.9,32.2,30.25,West,270,0.0,0.0,90,0.00,,,0.00,WUHU216HW,2013-01-15 14:18:00,
2013-01-15 06:23:00,34.9,32.2,30.26,West,270,0.0,0.0,90,0.00,,,0.00,WUHU216HW,2013-01-15 14:23:00,
2013-01-15 06:28:00,34.9,32.2,30.26,West,270,0.0,0.0,90,0.00,,,0.00,WUHU216HW,2013-01-15 14:28:00,
2013-01-15 06:33:00,34.9,32.2,30.26,West,270,0.0,0.0,90,0.00,,,0.00,WUHU216HW,2013-01-15 14:33:00,
2013-01-15 06:38:00,34.9,32.2,30.26,West,270,0.0,0.0,90,0.00,,,0.00,WUHU216HW,2013-01-15 14:38:00,
2013-01-15 06:43:00,35.1,32.4,30.26,West,270,0.0,0.0,90,0.00,,,0.00,WUHU216HW,2013-01-15 14:43:00,
2013-01-15 06:48:00,35.1,32.4,30.26,West,270,0.0,0.0,90,0.00,,,0.00,WUHU216HW,2013-01-15 14:48:00,
2013-01-15 06:53:00,34.9,32.2,30.26,West,270,0.0,0.0,90,0.00,,,0.00,WUHU216HW,2013-01-15 14:53:00,
2013-01-15 06:58:00,34.9,32.2,30.27,West,270,0.0,0.0,90,0.00,,,0.00,WUHU216HW,2013-01-15 14:58:00,
2013-01-15 07:03:00,34.9,32.2,30.27,West,270,0.0,0.0,90,0.00,,,0.00,WUHU216HW,2013-01-15 15:03:00,
2013-01-15 07:08:00,35.1,32.4,30.26,West,270,0.0,0.0,90,0.00,,,0.00,WUHU216HW,2013-01-15 15:08:00,
2013-01-15 07:13:00,35.1,32.4,30.27,West,270,0.0,0.0,90,0.00,,,0.00,WUHU216HW,2013-01-15 15:13:00,
2013-01-15 07:18:00,35.1,32.4,30.27,West,270,0.0,0.0,90,0.00,,,0.00,WUHU216HW,2013-01-15 15:18:00,
2013-01-15 07:23:00,35.1,32.4,30.27,West,270,0.0,0.0,90,0.00,,,0.00,WUHU216HW,2013-01-15 15:23:00,
2013-01-15 07:28:00,34.9,32.2,30.27,West,270,0.0,0.0,90,0.00,,,0.00,WUHU216HW,2013-01-15 15:28:00,
2013-01-15 07:33:00,34.9,32.2,30.27,West,270,0.0,0.0,90,0.00,,,0.00,WUHU216HW,2013-01-15 15:33:00,
2013-01-15 07:38:00,35.1,32.4,30.27,West,270,0.0,0.0,90,0.00,,,0.00,WUHU216HW,2013-01-15 15:38:00,
2013-01-15 07:43:00,35.1,32.4,30.27,West,270,0.0,0.0,90,0.00,,,0.00,WUHU216HW,2013-01-15 15:43:00,
2013-01-15 07:48:00,35.3,32.6,30.28,West,270,0.0,0.0,90,0.00,,,0.00,WUHU216HW,2013-01-15 15:48:00,
2013-01-15 07:53:00,35.3,32.6,30.28,West,270,0.0,0.0,90,0.00,,,0.00,WUHU216HW,2013-01-15 15:53:00,
2013-01-15 07:58:00,35.3,32.6,30.28,West,270,0.0,0.0,90,0.00,,,0.00,WUHU216HW,2013-01-15 15:58:00,
2013-01-15 08:03:00,35.3,32.6,30.28,West,270,0.0,0.0,90,0.00,,,0.00,WUHU216HW,2013-01-15 16:03:00,
2013-01-15 08:08:00,35.3,32.6,30.28,West,270,0.0,0.0,90,0.00,,,0.00,WUHU216HW,2013-01-15 16:08:00,
2013-01-15 08:13:00,35.3,32.6,30.28,West,270,0.0,0.0,90,0.00,,,0.00,WUHU216HW,2013-01-15 16:13:00,
2013-01-15 08:18:00,35.5,32.8,30.29,West,270,0.0,0.0,90,0.00,,,0.00,WUHU216HW,2013-01-15 16:18:00,
2013-01-15 08:23:00,35.5,32.8,30.29,West,270,0.0,0.0,90,0.00,,,0.00,WUHU216HW,2013-01-15 16:23:00,
2013-01-15 08:28:00,35.5,32.8,30.29,West,270,0.0,0.0,90,0.00,,,0.00,WUHU216HW,2013-01-15 16:28:00,
2013-01-15 08:33:00,35.6,32.9,30.29,West,270,0.0,0.0,90,0.00,,,0.00,WUHU216HW,2013-01-15 16:33:00,
2013-01-15 08:38:00,35.8,33.1,30.29,West,270,0.0,0.0,90,0.00,,,0.00,WUHU216HW,2013-01-15 16:38:00,
2013-01-15 08:43:00,36.0,33.3,30.29,West,270,0.0,0.0,90,0.00,,,0.00,WUHU216HW,2013-01-15 16:43:00,
2013-01-15 08:48:00,36.2,33.5,30.29,West,270,0.0,0.0,90,0.00,,,0.00,WUHU216HW,2013-01-15 16:48:00,
2013-01-15 08:53:00,36.4,33.7,30.30,West,270,0.0,0.0,90,0.00,,,0.00,WUHU216HW,2013-01-15 16:53:00,
2013-01-15 08:58:00,36.5,33.6,30.30,West,270,0.0,0.0,89,0.00,,,0.00,WUHU216HW,2013-01-15 16:58:00,
2013-01-15 09:03:00,36.7,33.8,30.30,West,270,0.0,0.0,89,0.00,,,0.00,WUHU216HW,2013-01-15 17:03:00,
2013-01-15 09:08:00,36.7,33.8,30.30,West,270,0.0,0.0,89,0.00,,,0.00,WUHU216HW,2013-01-15 17:08:00,
2013-01-15 09:13:00,37.1,34.1,30.30,West,270,0.0,0.0,89,0.00,,,0.00,WUHU216HW,2013-01-15 17:13:00,
2013-01-15 09:18:00,37.6,34.9,30.30,West,270,0.0,0.0,90,0.00,,,0.00,WUHU216HW,2013-01-15 17:18:00,
2013-01-15 09:23:00,37.8,35.1,30.30,West,270,0.0,0.0,90,0.00,,,0.00,WUHU216HW,2013-01-15 17:23:00,
2013-01-15 09:28:00,38.5,35.8,30.30,West,270,0.0,0.0,90,0.00,,,0.00,WUHU216HW,2013-01-15 17:28:00,
2013-01-15 09:33:00,39.6,36.6,30.30,West,270,0.0,0.0,89,0.00,,,0.00,WUHU216HW,2013-01-15 17:33:00,
2013-01-15 09:38:00,43.4,40.4,30.30,West,270,0.0,0.0,89,0.00,,,0.00,WUHU216HW,2013-01-15 17:38:00,
2013-01-15 09:43:00,44.6,40.7,30.30,West,270,0.0,0.0,86,0.00,,,0.00,WUHU216HW,2013-01-15 17:43:00,
2013-01-15 09:48:00,47.0,42.1,30.30,West,270,0.0,0.0,83,0.00,,,0.00,WUHU216HW,2013-01-15 17:48:00,
2013-01-15 09:53:00,47.3,41.8,30.30,West,270,0.0,0.0,81,0.00,,,0.00,WUHU216HW,2013-01-15 17:53:00,
2013-01-15 09:58:00,47.5,41.0,30.30,ESE,113,0.2,0.7,78,0.00,,,0.00,WUHU216HW,2013-01-15 17:58:00,
2013-01-15 10:03:00,49.0,43.4,30.30,ESE,113,0.0,0.7,81,0.00,,,0.00,WUHU216HW,2013-01-15 18:03:00,
2013-01-15 10:08:00,48.6,41.0,30.30,ESE,113,0.0,1.6,75,0.00,,,0.00,WUHU216HW,2013-01-15 18:08:00,
2013-01-15 10:13:00,46.6,39.5,30.31,ESE,113,0.0,1.6,76,0.00,,,0.00,WUHU216HW,2013-01-15 18:13:00,
2013-01-15 10:18:00,45.9,38.8,30.30,ESE,113,0.0,1.1,76,0.00,,,0.00,WUHU216HW,2013-01-15 18:18:00,
2013-01-15 10:23:00,44.6,36.8,30.30,ESE,113,0.2,1.3,74,0.00,,,0.00,WUHU216HW,2013-01-15 18:23:00,
2013-01-15 10:28:00,43.9,36.8,30.30,ESE,113,0.0,1.3,76,0.00,,,0.00,WUHU216HW,2013-01-15 18:28:00,
2013-01-15 10:33:00,43.2,36.5,30.30,ESE,113,0.0,1.1,77,0.00,,,0.00,WUHU216HW,2013-01-15 18:33:00,
2013-01-15 10:38:00,42.7,36.3,30.31,ESE,113,0.0,1.8,78,0.00,,,0.00,WUHU216HW,2013-01-15 18:38:00,
2013-01-15 10:43:00,42.3,36.2,30.31,SSE,158,0.0,1.8,79,0.00,,,0.00,WUHU216HW,2013-01-15 18:43:00,
2013-01-15 10:48:00,42.3,36.5,30.31,ESE,113,0.0,0.4,80,0.00,,,0.00,WUHU216HW,2013-01-15 18:48:00,
2013-01-15 10:53:00,42.3,36.8,30.31,ESE,113,0.0,0.0,81,0.00,,,0.00,WUHU216HW,2013-01-15 18:53:00,
2013-01-15 10:58:00,42.1,36.6,30.31,ESE,113,0.0,0.7,81,0.00,,,0.00,WUHU216HW,2013-01-15 18:58:00,
2013-01-15 11:03:00,41.9,36.5,30.31,ESE,113,0.0,0.9,81,0.00,,,0.00,WUHU216HW,2013-01-15 19:03:00,
2013-01-15 11:08:00,41.9,36.5,30.31,ESE,113,0.4,0.9,81,0.00,,,0.00,WUHU216HW,2013-01-15 19:08:00,
2013-01-15 11:13:00,41.9,36.5,30.31,ESE,113,0.0,0.7,81,0.00,,,0.00,WUHU216HW,2013-01-15 19:13:00,
2013-01-15 11:18:00,41.8,36.3,30.31,ESE,113,0.0,0.7,81,0.00,,,0.00,WUHU216HW,2013-01-15 19:18:00,
2013-01-15 11:23:00,41.8,36.3,30.31,ESE,113,0.4,1.1,81,0.00,,,0.00,WUHU216HW,2013-01-15 19:23:00,
2013-01-15 11:28:00,41.6,36.1,30.30,SE,135,0.0,1.1,81,0.00,,,0.00,WUHU216HW,2013-01-15 19:28:00,
2013-01-15 11:33:00,41.4,36.3,30.30,East,90,0.0,0.4,82,0.00,,,0.00,WUHU216HW,2013-01-15 19:33:00,
2013-01-15 11:38:00,41.4,36.3,30.31,ESE,113,0.0,0.2,82,0.00,,,0.00,WUHU216HW,2013-01-15 19:38:00,
2013-01-15 11:43:00,41.4,36.3,30.31,ESE,113,0.0,0.2,82,0.00,,,0.00,WUHU216HW,2013-01-15 19:43:00,
2013-01-15 11:48:00,41.4,36.3,30.30,ESE,113,0.0,0.0,82,0.00,,,0.00,WUHU216HW,2013-01-15 19:48:00,
2013-01-15 11:53:00,41.2,36.4,30.30,NW,315,0.0,0.4,83,0.00,,,0.00,WUHU216HW,2013-01-15 19:53:00,
2013-01-15 11:58:00,41.4,36.5,30.30,ENE,68,0.0,0.4,83,0.00,,,0.00,WUHU216HW,2013-01-15 19:58:00,
2013-01-15 12:03:00,41.2,36.4,30.30,East,90,0.0,0.2,83,0.00,,,0.00,WUHU216HW,2013-01-15 20:03:00,
2013-01-15 12:08:00,41.2,36.7,30.30,East,90,0.0,0.2,84,0.00,,,0.00,WUHU216HW,2013-01-15 20:08:00,
2013-01-15 12:13:00,41.4,36.9,30.30,SE,135,0.0,0.4,84,0.00,,,0.00,WUHU216HW,2013-01-15 20:13:00,
2013-01-15 12:18:00,41.4,36.9,30.30,ESE,113,0.2,0.4,84,0.00,,,0.00,WUHU216HW,2013-01-15 20:18:00,
2013-01-15 12:23:00,41.4,36.9,30.30,ESE,113,0.0,0.4,84,0.00,,,0.00,WUHU216HW,2013-01-15 20:23:00,
2013-01-15 12:28:00,41.4,36.9,30.30,East,90,0.0,0.4,84,0.00,,,0.00,WUHU216HW,2013-01-15 20:28:00,
2013-01-15 12:33:00,41.6,37.1,30.29,ESE,113,0.0,0.4,84,0.00,,,0.00,WUHU216HW,2013-01-15 20:33:00,
2013-01-15 12:38:00,41.6,37.1,30.29,ESE,113,0.0,0.4,84,0.00,,,0.00,WUHU216HW,2013-01-15 20:38:00,
2013-01-15 12:43:00,41.8,37.5,30.29,ESE,113,0.0,0.4,85,0.00,,,0.00,WUHU216HW,2013-01-15 20:43:00,
2013-01-15 12:48:00,41.8,37.5,30.29,West,270,0.2,0.4,85,0.00,,,0.00,WUHU216HW,2013-01-15 20:48:00,
2013-01-15 12:53:00,41.9,37.7,30.29,East,90,0.0,0.4,85,0.00,,,0.00,WUHU216HW,2013-01-15 20:53:00,
2013-01-15 12:58:00,42.1,37.9,30.28,East,90,0.0,0.4,85,0.00,,,0.00,WUHU216HW,2013-01-15 20:58:00,
2013-01-15 13:03:00,42.1,37.9,30.28,ESE,113,0.0,0.4,85,0.00,,,0.00,WUHU216HW,2013-01-15 21:03:00,
2013-01-15 13:08:00,42.1,37.9,30.28,WNW,293,0.4,0.4,85,0.00,,,0.00,WUHU216HW,2013-01-15 21:08:00,
2013-01-15 13:13:00,42.1,37.9,30.28,NW,315,0.2,1.1,85,0.00,,,0.00,WUHU216HW,2013-01-15 21:13:00,
2013-01-15 13:18:00,42.1,37.9,30.28,SW,225,0.0,1.1,85,0.00,,,0.00,WUHU216HW,2013-01-15 21:18:00,
2013-01-15 13:23:00,42.5,38.3,30.28,West,270,0.4,1.1,85,0.00,,,0.00,WUHU216HW,2013-01-15 21:23:00,
2013-01-15 13:28:00,42.5,38.3,30.28,East,90,0.0,1.1,85,0.00,,,0.00,WUHU216HW,2013-01-15 21:28:00,
2013-01-15 13:33:00,42.5,38.3,30.28,WSW,248,0.2,0.7,85,0.00,,,0.00,WUHU216HW,2013-01-15 21:33:00,
2013-01-15 13:38:00,42.7,38.4,30.28,ESE,113,0.2,0.7,85,0.00,,,0.00,WUHU216HW,2013-01-15 21:38:00,
2013-01-15 13:43:00,42.7,38.4,30.28,ESE,113,0.0,0.7,85,0.00,,,0.00,WUHU216HW,2013-01-15 21:43:00,
2013-01-15 13:48:00,42.7,38.4,30.28,WNW,293,0.2,0.4,85,0.00,,,0.00,WUHU216HW,2013-01-15 21:48:00,
2013-01-15 13:53:00,42.5,38.3,30.28,West,270,0.2,0.9,85,0.00,,,0.00,WUHU216HW,2013-01-15 21:53:00,
2013-01-15 13:58:00,42.5,38.3,30.28,SSW,203,0.0,0.9,85,0.00,,,0.00,WUHU216HW,2013-01-15 21:58:00,
2013-01-15 14:03:00,42.8,38.6,30.28,East,90,0.0,0.4,85,0.00,,,0.00,WUHU216HW,2013-01-15 22:03:00,
2013-01-15 14:08:00,43.0,38.8,30.28,ESE,113,0.0,0.7,85,0.00,,,0.00,WUHU216HW,2013-01-15 22:08:00,
2013-01-15 14:13:00,42.8,38.4,30.28,West,270,0.4,0.7,84,0.00,,,0.00,WUHU216HW,2013-01-15 22:13:00,
2013-01-15 14:18:00,42.8,38.6,30.28,West,270,0.0,0.4,85,0.00,,,0.00,WUHU216HW,2013-01-15 22:18:00,
2013-01-15 14:23:00,42.8,38.4,30.28,West,270,0.0,0.4,84,0.00,,,0.00,WUHU216HW,2013-01-15 22:23:00,
2013-01-15 14:28:00,42.8,38.4,30.28,East,90,0.4,0.4,84,0.00,,,0.00,WUHU216HW,2013-01-15 22:28:00,
2013-01-15 14:33:00,42.8,38.4,30.28,West,270,0.2,0.9,84,0.00,,,0.00,WUHU216HW,2013-01-15 22:33:00,
2013-01-15 14:38:00,42.8,38.6,30.28,SSE,158,0.2,0.9,85,0.00,,,0.00,WUHU216HW,2013-01-15 22:38:00,
2013-01-15 14:43:00,43.0,38.5,30.28,SE,135,0.0,0.7,84,0.00,,,0.00,WUHU216HW,2013-01-15 22:43:00,
2013-01-15 14:48:00,43.0,38.5,30.28,ESE,113,0.0,0.9,84,0.00,,,0.00,WUHU216HW,2013-01-15 22:48:00,
2013-01-15 14:53:00,43.2,38.3,30.29,WNW,293,1.1,1.1,83,0.00,,,0.00,WUHU216HW,2013-01-15 22:53:00,
2013-01-15 14:58:00,43.0,38.5,30.29,East,90,0.0,1.1,84,0.00,,,0.00,WUHU216HW,2013-01-15 22:58:00,
2013-01-15 15:03:00,43.4,38.9,30.29,WSW,248,0.0,1.1,84,0.00,,,0.00,WUHU216HW,2013-01-15 23:03:00,
2013-01-15 15:08:00,43.4,38.5,30.29,East,90,0.2,0.7,83,0.00,,,0.00,WUHU216HW,2013-01-15 23:08:00,
2013-01-15 15:13:00,43.4,38.3,30.29,WNW,293,0.2,1.1,82,0.00,,,0.00,WUHU216HW,2013-01-15 23:13:00,
2013-01-15 15:18:00,43.6,38.7,30.29,East,90,0.0,1.1,83,0.00,,,0.00,WUHU216HW,2013-01-15 23:18:00,
2013-01-15 15:23:00,43.7,38.9,30.29,ESE,113,0.4,0.4,83,0.00,,,0.00,WUHU216HW,2013-01-15 23:23:00,
2013-01-15 15:28:00,43.4,38.3,30.29,East,90,0.4,1.1,82,0.00,,,0.00,WUHU216HW,2013-01-15 23:28:00,
2013-01-15 15:33:00,43.0,38.2,30.29,ESE,113,0.0,1.1,83,0.00,,,0.00,WUHU216HW,2013-01-15 23:33:00,
2013-01-15 15:38:00,42.7,37.8,30.29,West,270,0.0,0.9,83,0.00,,,0.00,WUHU216HW,2013-01-15 23:38:00,
2013-01-15 15:43:00,42.1,37.6,30.29,NNW,338,0.0,0.9,84,0.00,,,0.00,WUHU216HW,2013-01-15 23:43:00,
2013-01-15 15:48:00,42.1,37.6,30.29,SSE,158,0.0,0.4,84,0.00,,,0.00,WUHU216HW,2013-01-15 23:48:00,
2013-01-15 15:53:00,41.9,37.5,30.29,West,270,0.4,0.7,84,0.00,,,0.00,WUHU216HW,2013-01-15 23:53:00,
2013-01-15 15:58:00,41.4,36.9,30.29,WNW,293,0.4,1.1,84,0.00,,,0.00,WUHU216HW,2013-01-15 23:58:00,
2013-01-15 16:03:00,41.0,36.6,30.29,WNW,293,0.0,1.1,84,0.00,,,0.00,WUHU216HW,2013-01-16 00:03:00,
2013-01-15 16:08:00,41.0,36.8,30.29,WNW,293,0.4,0.7,85,0.00,,,0.00,WUHU216HW,2013-01-16 00:08:00,
2013-01-15 16:13:00,41.0,36.8,30.29,West,270,0.9,0.9,85,0.00,,,0.00,WUHU216HW,2013-01-16 00:13:00,
2013-01-15 16:18:00,40.9,36.9,30.29,West,270,0.4,0.9,86,0.00,,,0.00,WUHU216HW,2013-01-16 00:18:00,
2013-01-15 16:23:00,40.9,36.9,30.29,West,270,0.4,1.1,86,0.00,,,0.00,WUHU216HW,2013-01-16 00:23:00,
2013-01-15 16:28:00,40.9,36.9,30.30,West,270,0.0,1.1,86,0.00,,,0.00,WUHU216HW,2013-01-16 00:28:00,
2013-01-15 16:33:00,40.9,36.9,30.30,West,270,0.0,0.2,86,0.00,,,0.00,WUHU216HW,2013-01-16 00:33:00,
2013-01-15 16:38:00,40.9,36.9,30.30,West,270,0.0,0.2,86,0.00,,,0.00,WUHU216HW,2013-01-16 00:38:00,
2013-01-15 16:43:00,40.9,36.9,30.30,West,270,0.0,0.9,86,0.00,,,0.00,WUHU216HW,2013-01-16 00:43:00,
2013-01-15 16:48:00,40.9,36.9,30.30,West,270,0.0,0.9,86,0.00,,,0.00,WUHU216HW,2013-01-16 00:48:00,
2013-01-15 16:53:00,40.7,36.8,30.30,West,270,0.0,1.1,86,0.00,,,0.00,WUHU216HW,2013-01-16 00:53:00,
2013-01-15 16:58:00,40.7,36.8,30.30,West,270,0.4,1.1,86,0.00,,,0.00,WUHU216HW,2013-01-16 00:58:00,
2013-01-15 17:03:00,40.7,36.8,30.30,West,270,0.0,0.4,86,0.00,,,0.00,WUHU216HW,2013-01-16 01:03:00,
2013-01-15 17:08:00,40.7,36.8,30.30,WNW,293,0.7,0.7,86,0.00,,,0.00,WUHU216HW,2013-01-16 01:08:00,
2013-01-15 17:13:00,40.5,36.6,30.30,West,270,0.0,0.7,86,0.00,,,0.00,WUHU216HW,2013-01-16 01:13:00,
2013-01-15 17:18:00,40.3,36.5,30.30,West,270,0.0,0.9,86,0.00,,,0.00,WUHU216HW,2013-01-16 01:18:00,
2013-01-15 17:23:00,40.1,36.3,30.30,West,270,0.0,0.9,86,0.00,,,0.00,WUHU216HW,2013-01-16 01:23:00,
2013-01-15 17:28:00,40.1,36.3,30.30,West,270,0.2,0.7,86,0.00,,,0.00,WUHU216HW,2013-01-16 01:28:00,
2013-01-15 17:33:00,40.0,36.1,30.30,West,270,0.0,0.7,86,0.00,,,0.00,WUHU216HW,2013-01-16 01:33:00,
2013-01-15 17:38:00,40.0,36.1,30.30,West,270,0.0,0.7,86,0.00,,,0.00,WUHU216HW,2013-01-16 01:38:00,
2013-01-15 17:43:00,40.1,36.3,30.30,WNW,293,0.0,0.0,86,0.00,,,0.00,WUHU216HW,2013-01-16 01:43:00,
2013-01-15 17:48:00,40.0,36.1,30.30,NNW,338,0.0,0.0,86,0.00,,,0.00,WUHU216HW,2013-01-16 01:48:00,
2013-01-15 17:53:00,40.0,36.1,30.30,NW,315,0.0,0.0,86,0.00,,,0.00,WUHU216HW,2013-01-16 01:53:00,
2013-01-15 17:58:00,40.0,36.1,30.30,North,0,0.0,0.0,86,0.00,,,0.00,WUHU216HW,2013-01-16 01:58:00,
2013-01-15 18:03:00,40.0,36.4,30.30,WNW,293,0.4,0.4,87,0.00,,,0.00,WUHU216HW,2013-01-16 02:03:00,
2013-01-15 18:08:00,40.0,36.4,30.30,NW,315,0.0,0.4,87,0.00,,,0.00,WUHU216HW,2013-01-16 02:08:00,
2013-01-15 18:13:00,39.8,36.2,30.30,NW,315,0.0,0.2,87,0.00,,,0.00,WUHU216HW,2013-01-16 02:13:00,
2013-01-15 18:18:00,39.8,36.2,30.30,WNW,293,0.2,0.4,87,0.00,,,0.00,WUHU216HW,2013-01-16 02:18:00,
2013-01-15 18:23:00,39.8,36.2,30.31,WNW,293,0.0,0.7,87,0.00,,,0.00,WUHU216HW,2013-01-16 02:23:00,
2013-01-15 18:28:00,39.8,36.2,30.31,WNW,293,0.0,0.7,87,0.00,,,0.00,WUHU216HW,2013-01-16 02:28:00,
2013-01-15 18:33:00,39.8,36.2,30.31,WNW,293,0.0,0.0,87,0.00,,,0.00,WUHU216HW,2013-01-16 02:33:00,
2013-01-15 18:38:00,39.8,36.2,30.31,WNW,293,0.0,0.0,87,0.00,,,0.00,WUHU216HW,2013-01-16 02:38:00,
2013-01-15 18:43:00,39.8,36.2,30.30,NNE,23,0.0,0.0,87,0.00,,,0.00,WUHU216HW,2013-01-16 02:43:00,
2013-01-15 18:48:00,39.8,36.2,30.30,NW,315,0.0,0.2,87,0.00,,,0.00,WUHU216HW,2013-01-16 02:48:00,
2013-01-15 18:53:00,39.8,36.2,30.30,ESE,113,0.4,0.4,87,0.00,,,0.00,WUHU216HW,2013-01-16 02:53:00,
2013-01-15 18:58:00,39.6,36.0,30.31,East,90,0.0,0.4,87,0.00,,,0.00,WUHU216HW,2013-01-16 02:58:00,
2013-01-15 19:03:00,39.6,36.0,30.31,East,90,0.0,0.4,87,0.00,,,0.00,WUHU216HW,2013-01-16 03:03:00,
2013-01-15 19:08:00,39.6,36.0,30.31,WNW,293,0.0,0.9,87,0.00,,,0.00,WUHU216HW,2013-01-16 03:08:00,
2013-01-15 19:13:00,39.4,35.8,30.31,West,270,0.4,1.1,87,0.00,,,0.00,WUHU216HW,2013-01-16 03:13:00,
2013-01-15 19:18:00,39.4,35.8,30.30,West,270,0.0,1.1,87,0.00,,,0.00,WUHU216HW,2013-01-16 03:18:00,
2013-01-15 19:23:00,39.4,35.8,30.30,West,270,0.0,0.4,87,0.00,,,0.00,WUHU216HW,2013-01-16 03:23:00,
2013-01-15 19:28:00,39.2,35.6,30.30,West,270,0.0,0.7,87,0.00,,,0.00,WUHU216HW,2013-01-16 03:28:00,
2013-01-15 19:33:00,39.2,35.6,30.30,NNW,338,0.0,0.7,87,0.00,,,0.00,WUHU216HW,2013-01-16 03:33:00,
2013-01-15 19:38:00,39.2,35.6,30.30,NNE,23,0.0,0.2,87,0.00,,,0.00,WUHU216HW,2013-01-16 03:38:00,
2013-01-15 19:43:00,39.2,35.6,30.30,West,270,0.0,1.8,87,0.00,,,0.00,WUHU216HW,2013-01-16 03:43:00,
2013-01-15 19:48:00,39.2,35.6,30.30,WNW,293,0.0,1.8,87,0.00,,,0.00,WUHU216HW,2013-01-16 03:48:00,
2013-01-15 19:53:00,39.2,35.6,30.30,ESE,113,0.0,0.4,87,0.00,,,0.00,WUHU216HW,2013-01-16 03:53:00,
2013-01-15 19:58:00,39.2,35.6,30.30,ESE,113,0.0,0.2,87,0.00,,,0.00,WUHU216HW,2013-01-16 03:58:00,
2013-01-15 20:03:00,39.2,35.6,30.30,ESE,113,0.0,0.2,87,0.00,,,0.00,WUHU216HW,2013-01-16 04:03:00,
2013-01-15 20:08:00,39.1,35.5,30.30,ESE,113,0.2,0.2,87,0.00,,,0.00,WUHU216HW,2013-01-16 04:08:00,
2013-01-15 20:13:00,39.1,35.5,30.30,ESE,113,0.0,0.4,87,0.00,,,0.00,WUHU216HW,2013-01-16 04:13:00,
2013-01-15 20:18:00,39.1,35.5,30.30,ESE,113,0.0,0.4,87,0.00,,,0.00,WUHU216HW,2013-01-16 04:18:00,
2013-01-15 20:23:00,39.1,35.5,30.30,SW,225,0.0,0.0,87,0.00,,,0.00,WUHU216HW,2013-01-16 04:23:00,
2013-01-15 20:28:00,39.2,35.6,30.30,SW,225,0.0,0.0,87,0.00,,,0.00,WUHU216HW,2013-01-16 04:28:00,
2013-01-15 20:33:00,39.1,35.5,30.30,ESE,113,0.0,0.4,87,0.00,,,0.00,WUHU216HW,2013-01-16 04:33:00,
2013-01-15 20:38:00,39.1,35.5,30.30,ESE,113,0.0,0.4,87,0.00,,,0.00,WUHU216HW,2013-01-16 04:38:00,
2013-01-15 20:43:00,39.1,35.5,30.30,ESE,113,0.0,0.0,87,0.00,,,0.00,WUHU216HW,2013-01-16 04:43:00,
2013-01-15 20:48:00,39.1,35.5,30.30,SW,225,0.2,0.2,87,0.00,,,0.00,WUHU216HW,2013-01-16 04:48:00,
2013-01-15 20:53:00,38.9,35.3,30.30,East,90,0.0,0.2,87,0.00,,,0.00,WUHU216HW,2013-01-16 04:53:00,
2013-01-15 20:58:00,38.9,35.3,30.30,NNE,23,0.0,0.2,87,0.00,,,0.00,WUHU216HW,2013-01-16 04:58:00,
2013-01-15 21:00:00,38.9,35.3,30.30,West,270,0.0,0.0,87,0.00,,,0.00,WUHU216HW,2013-01-16 05:00:00,
2013-01-15 21:03:00,38.9,35.3,30.30,West,270,0.0,0.0,87,0.00,,,0.00,WUHU216HW,2013-01-16 05:03:00,
2013-01-15 21:08:00,38.9,35.3,30.30,SW,225,0.0,0.4,87,0.00,,,0.00,WUHU216HW,2013-01-16 05:08:00,
2013-01-15 21:13:00,38.7,35.1,30.30,NE,45,0.0,0.4,87,0.00,,,0.00,WUHU216HW,2013-01-16 05:13:00,
2013-01-15 21:18:00,38.5,34.9,30.30,West,270,0.0,0.4,87,0.00,,,0.00,WUHU216HW,2013-01-16 05:18:00,
2013-01-15 21:23:00,38.5,34.9,30.30,ESE,113,0.0,0.4,87,0.00,,,0.00,WUHU216HW,2013-01-16 05:23:00,
2013-01-15 21:28:00,38.5,34.9,30.30,ESE,113,0.0,0.2,87,0.00,,,0.00,WUHU216HW,2013-01-16 05:28:00,
2013-01-15 21:33:00,38.5,34.9,30.30,ESE,113,0.0,0.2,87,0.00,,,0.00,WUHU216HW,2013-01-16 05:33:00,
2013-01-15 21:38:00,38.5,34.9,30.30,ESE,113,0.0,0.0,87,0.00,,,0.00,WUHU216HW,2013-01-16 05:38:00,
2013-01-15 21:43:00,38.3,34.7,30.30,WNW,293,0.2,0.2,87,0.00,,,0.00,WUHU216HW,2013-01-16 05:43:00,
2013-01-15 21:48:00,38.3,35.1,30.30,WNW,293,0.0,0.2,88,0.00,,,0.00,WUHU216HW,2013-01-16 05:48:00,
2013-01-15 21:53:00,38.3,35.1,30.30,WNW,293,0.0,0.4,88,0.00,,,0.00,WUHU216HW,2013-01-16 05:53:00,
2013-01-15 21:58:00,38.3,35.1,30.29,WNW,293,0.0,0.4,88,0.00,,,0.00,WUHU216HW,2013-01-16 05:58:00,
2013-01-15 22:03:00,38.3,35.1,30.30,WNW,293,0.0,0.2,88,0.00,,,0.00,WUHU216HW,2013-01-16 06:03:00,
2013-01-15 22:08:00,38.3,35.1,30.30,WNW,293,0.0,0.0,88,0.00,,,0.00,WUHU216HW,2013-01-16 06:08:00,
2013-01-15 22:13:00,38.3,35.1,30.29,ESE,113,0.0,0.2,88,0.00,,,0.00,WUHU216HW,2013-01-16 06:13:00,
2013-01-15 22:18:00,38.3,35.1,30.29,East,90,0.0,0.4,88,0.00,,,0.00,WUHU216HW,2013-01-16 06:18:00,
2013-01-15 22:23:00,38.2,34.9,30.30,ESE,113,0.0,0.4,88,0.00,,,0.00,WUHU216HW,2013-01-16 06:23:00,
2013-01-15 22:28:00,38.2,34.9,30.30,ESE,113,0.0,0.2,88,0.00,,,0.00,WUHU216HW,2013-01-16 06:28:00,
2013-01-15 22:33:00,38.2,34.9,30.30,West,270,0.0,0.0,88,0.00,,,0.00,WUHU216HW,2013-01-16 06:33:00,
2013-01-15 22:38:00,38.2,34.9,30.30,West,270,0.0,0.4,88,0.00,,,0.00,WUHU216HW,2013-01-16 06:38:00,
2013-01-15 22:43:00,38.2,35.2,30.30,East,90,0.0,0.7,89,0.00,,,0.00,WUHU216HW,2013-01-16 06:43:00,
2013-01-15 22:48:00,38.0,35.0,30.30,East,90,0.0,1.1,89,0.00,,,0.00,WUHU216HW,2013-01-16 06:48:00,
2013-01-15 22:53:00,38.0,35.0,30.30,East,90,0.0,1.1,89,0.00,,,0.00,WUHU216HW,2013-01-16 06:53:00,
2013-01-15 22:58:00,38.0,35.0,30.30,East,90,0.0,0.4,89,0.00,,,0.00,WUHU216HW,2013-01-16 06:58:00,
2013-01-15 23:03:00,38.0,35.0,30.30,East,90,0.0,0.2,89,0.00,,,0.00,WUHU216HW,2013-01-16 07:03:00,
2013-01-15 23:08:00,38.0,35.0,30.30,ESE,113,0.0,0.2,89,0.00,,,0.00,WUHU216HW,2013-01-16 07:08:00,
2013-01-15 23:13:00,38.0,35.0,30.30,ESE,113,0.0,0.2,89,0.00,,,0.00,WUHU216HW,2013-01-16 07:13:00,
2013-01-15 23:18:00,37.8,34.8,30.30,ESE,113,0.0,0.4,89,0.00,,,0.00,WUHU216HW,2013-01-16 07:18:00,
2013-01-15 23:23:00,37.8,34.8,30.30,ESE,113,0.0,0.4,89,0.00,,,0.00,WUHU216HW,2013-01-16 07:23:00,
2013-01-15 23:28:00,37.8,34.8,30.30,ESE,113,0.0,0.0,89,0.00,,,0.00,WUHU216HW,2013-01-16 07:28:00,
2013-01-15 23:33:00,37.8,34.8,30.30,ESE,113,0.0,0.0,89,0.00,,,0.00,WUHU216HW,2013-01-16 07:33:00,
2013-01-15 23:38:00,37.8,34.8,30.30,ESE,113,0.0,0.0,89,0.00,,,0.00,WUHU216HW,2013-01-16 07:38:00,
2013-01-15 23:43:00,37.6,34.7,30.30,East,90,0.0,0.4,89,0.00,,,0.00,WUHU216HW,2013-01-16 07:43:00,
2013-01-15 23:48:00,37.4,34.5,30.30,East,90,0.0,0.4,89,0.00,,,0.00,WUHU216HW,2013-01-16 07:48:00,
2013-01-15 23:53:00,37.4,34.5,30.30,East,90,0.0,0.4,89,0.00,,,0.00,WUHU216HW,2013-01-16 07:53:00,
2013-01-15 23:58:00,37.4,34.5,30.31,East,90,0.0,0.0,89,0.00,,,0.00,WUHU216HW,2013-01-16 07:58:00,